COSMOS 1375 DEB

Satellite information

Favourite Embed

Satellite Type and Status

DEBRISIN ORBIT

Key statistics

Satellite COSMOS 1375 DEB at a glance.

Uptime

15897

Days in orbit

Revolutions

≈ 14.0

Per day

Orbit

LEO

Low Earth Orbit

Inclination

65.8

Latest

Satellite identification and parameters

Extended collection of information and parameters for COSMOS 1375 DEB.

Object identification

Identified? True

Debris? True

Object name: COSMOS 1375 DEB

International designator: 1982-055AR

Object number (NORAD): 17799

Object ID (CCSDS): 17799

Country: COMMONWEALTH OF INDEPENDENT STATES (CIS)

Current information (Y/N): Y

RCS size: SMALL

Orbital parameters

Period: 103.152 minutes

Inclination: 65.8376 deg

SMA: 7285.831 km

Apoapsis: 921.674 km

Periapsis: 893.719 km

RAAN: 72.9313 deg

Eccentricy: 0.00191848

Argument of periapsis: 157.4157 deg

Mean anomaly: 316.0411 deg

Mean motion: 13.95995762 rev/day

Mean motion (dot): 0.00000902 rev/day2

B* drag term: 0.00071824189 1/REarth

Two-line elements (TLE)

Creation date: Dec. 14, 2025, 3:07 a.m.

Reference frame: TEME

Reference center: EARTH

Epoch: Dec. 13, 2025, 2:59 p.m. UTC

TLE line 0: 0 COSMOS 1375 DEB

TLE line 1: 1 17799U 82055AR 25347.62475087 .00000902 00000-0 71824-3 0 9999

TLE line 2: 2 17799 65.8376 72.9313 0019185 157.4157 316.0411 13.95995762 33928

Live tracking on map

Real-time ground track for satellite COSMOS 1375 DEB.

In-orbit conjunctions

A list of the most updated potential collisions computed for object COSMOS 1375 DEB.

Target Orbit TCA Probability of collision Miss distance Type
FENGYUN 1C DEB SSO 2025-10-24 18:13:05 0.000111176 117.0 (m) DEBRIS
METEOR 1-18 LEO 2024-11-12 18:08:59 0.001843701 865.0 (m) PAYLOAD

Associated space launch

ASAT target satellite

COSMOS 1375 DEB was lifted into orbit during the mission ‘Kosmos-3M | DS-P1-M 16’, on board a Kosmos-3M space rocket.

The launch took place on June 6, 1982, 5:10 p.m. from 132/2.

For more information about the launch, click the button.

Launch to space Kosmos-3M | DS-P1-M 16
Kosmos-3M | DS-P1-M 16

Agency: N/A

Status: Launch Successful

Launch date: June 6, 1982, 5:10 p.m. UTC

Rocket: Kosmos-3M

Launch pad: 132/2

Location: Plesetsk Cosmodrome, Russian Federation

...

Latest news about this satellite

There are no fresh news available about this satellite. Check back as we update our databases every day.


Newsletter sign-up

Weekly statistics, charts and insights to help you stay on top of the space industry.